Terug naar catalogus

DELTA 1 DEB

ActiefLEO
NORAD 7081·DEBRIS·🇺🇸 United States

Gelanceerd Nov 6, 1973 vanaf Vandenberg Space Force Base

Loading…

Volgende Passages (komende 24 uur)

TLE

VersSource: Space-Track

Epoch: Sep 14, 2026, 07:57 UTC

1 07081U 73086BZ  26257.33135437  .00000130  00000-0  86751-3 0  9995
2 07081 102.2794  25.4008 0165601 307.8638  77.8243 12.69931732447016

Volg DELTA 1 DEB in realtime met AllMySat

Download on the App Store